Location: Unspecified
(0.0000°N, 0.0000°E)
Time: 01:43:29
(UTC+00:00)

Transit 2A Rocket - All Passes

Search period start: 20 July 2019 00:00
Search period end: 30 July 2019 00:00
Orbit: 588 x 915 km, 66.7° (Epoch: 18 July)

Date Brightness Start Highest point End Pass type
(mag) Time Alt. Az. Time Alt. Az. Time Alt. Az.
20 Jul - 00:44:52 10° SSE 00:48:55 19° ESE 00:53:01 10° ENE night (unlit)
20 Jul - 02:25:46 10° SW 02:31:19 38° WNW 02:36:54 10° N visible
20 Jul - 13:15:10 10° N 13:19:05 34° ENE 13:22:58 10° SE daylight
21 Jul - 01:42:49 10° SSW 01:48:50 75° WNW 01:54:56 10° NNE night (unlit)
21 Jul - 12:34:14 10° NE 12:36:38 15° ENE 12:38:59 10° ESE daylight
21 Jul - 14:15:41 10° WNW 14:18:52 20° WSW 14:22:03 10° SSW daylight
22 Jul - 01:00:29 10° S 01:06:23 57° ESE 01:12:20 10° NNE night (unlit)
22 Jul - 02:46:34 10° W 02:48:50 12° WNW 02:51:05 10° NW night (unlit)
22 Jul - 13:32:17 10° NW 13:36:26 49° WSW 13:40:34 10° S daylight
23 Jul - 00:18:47 10° SSE 00:23:55 29° ESE 00:29:06 10° NE night (unlit)
23 Jul - 02:01:29 10° WSW 02:06:19 25° WNW 02:11:09 10° NNW night (unlit)
23 Jul - 12:49:44 10° NNW 12:54:00 63° ENE 12:58:13 10° SSE daylight
23 Jul - 23:38:15 10° SE 23:41:26 15° ESE 23:44:39 10° ENE night (unlit)
24 Jul - 01:18:03 10° SW 01:23:50 48° WNW 01:29:39 10° N night (unlit)
24 Jul - 12:07:59 10° NNE 12:11:34 25° ENE 12:15:05 10° SE daylight
24 Jul - 13:52:23 10° W 13:53:48 11° WSW 13:55:14 10° SW daylight
25 Jul - 00:35:19 10° SSW 00:41:22 88° ESE 00:47:28 10° NNE night (unlit)
25 Jul - 11:28:12 10° ENE 11:29:05 11° ENE 11:29:58 10° E daylight
25 Jul - 13:07:42 10° NW 13:11:21 27° WSW 13:14:59 10° S daylight
25 Jul - 23:53:11 10° S 23:58:55 45° ESE 00:04:42 10° NE night (unlit)
26 Jul - 01:37:50 10° WSW 01:41:20 16° WNW 01:44:50 10° NW night (unlit)
26 Jul - 12:24:39 10° NNW 12:28:55 69° WSW 12:33:09 10° SSE daylight
26 Jul - 23:11:46 10° SSE 23:16:27 23° ESE 23:21:09 10° ENE night (unlit)
27 Jul - 00:53:34 10° SW 00:58:50 31° WNW 01:04:06 10° N night (unlit)
27 Jul - 11:42:22 10° N 11:46:29 45° ENE 11:50:34 10° SE daylight
27 Jul - 22:32:14 10° SE 22:33:56 11° ESE 22:35:39 10° E night (unlit)
28 Jul - 00:10:24 10° SSW 00:16:22 61° WNW 00:22:20 10° N night (unlit)
28 Jul - 11:00:58 10° NNE 11:04:02 19° ENE 11:07:04 10° ESE daylight
28 Jul - 12:43:43 10° WNW 12:46:16 16° WSW 12:48:51 10° SSW daylight
28 Jul - 23:27:52 10° SSW 23:33:55 71° ESE 23:39:57 10° NNE night (unlit)
29 Jul - 11:59:52 10° NW 12:03:49 37° WSW 12:07:47 10° S daylight
29 Jul - 22:45:57 10° S 22:51:27 36° ESE 22:56:56 10° NE night (unlit)
